Погода в Пьи

Мьянма     18°49′02″N   95°13′44″E
темп.,
°C
ветер,
м/с
пор.,
м/с
влажн.,
%
обл.,
%
осадки,
мм/ч
давл.,
гПа
погр.,
м
11 апреля, вс
вс1100:30+28ююз22592 0.0 100981
03:30+27ююв366330 0.0 1009276
06:30+26ююв36685 0.0 1011292
09:30+33ю44425 0.0 1013971
12:30+38ю34255 0.0 10102217
15:30+40ююв44217 0.0 10072919
18:30+35зюз57305 0.0 1008467
21:30+31зюз37474 0.0 1010243
12 апреля, пн
пн1200:30+29ююв3552100 0.0 1010210
03:30+28ююв2256100 0.0 101064
06:30+27ююв356583 0.0 1011222
09:30+33ю33425 0.0 1013890
12:30+38ю34255 0.0 10102058
15:30+40ююв342097 0.0 10063336
18:30+35зюз582912 0.0 1007495
21:30+30зюз375013 0.0 1010288
13 апреля, вт
вт1300:30+29ююз255344 0.1 1010209
03:30+27ююв236122 0.1 1009112
06:30+26ююв236812 0.1 1011169
09:30+33ююв333882 0.0 1012913
12:30+38ю332229 0.0 10091946
15:30+40ююв451812 0.0 10052946
18:30+35зюз58315 0.0 1006415
21:30+30зюз48485 0.0 1008325
14 апреля, ср
ср1400:30+28ю345624 0.0 1009206
03:30+27ю2459100 0.0 1008193
06:30+26ююв256495 0.0 1010224
09:30+33ююв22388 0.0 1011880
12:30+39ю221994 0.0 10081819
15:30+41вюв2315100 0.0 10043183
18:30+35зюз58347 0.0 1004515
21:30+30зюз48505 0.0 1007310
15 апреля, чт
чт1500:30+28ююз355731 0.0 1008300
03:30+26ююз236499 0.0 1008137
06:30+26ю24680 0.0 1009197
09:30+33ююз23360 0.0 1011932
12:30+40зюз13180 0.0 10082041
15:30+41ю13140 0.0 10033674
18:30+34зюз69340 0.0 1004492
21:30+29зюз59570 0.0 1007358